Location: Flint Hill Observatory
(31.1875°N, 100.5222°W)
Time: 03:42:51
(UTC-05:00)

Daily predictions for brighter satellites

Satellite Brightness Start Highest point End
(mag) Time Altitude Azimuth Time Altitude Azimuth Time Altitude Azimuth
ATLAS 3B R/B 3.8 00:03:51 16° WSW 00:09:52 46° NW 00:17:07 10° NNE
USA 234 4.0 00:17:55 41° W 00:17:55 41° W 00:22:56 10° NW
Cosmos 1943 Rocket 3.4 00:20:18 10° N 00:23:46 37° N 00:23:46 37° N
H-2A R/B 4.1 00:40:36 20° WNW 00:40:36 20° WNW 00:42:45 10° NW
USA 238 DEB 4.1 00:42:39 61° NW 00:42:39 61° NW 00:49:08 10° NNE
USA 238 4.1 00:42:48 61° NNW 00:42:48 61° NNW 00:49:13 10° NNE
Atlas Centaur 2 3.6 00:37:51 10° W 00:43:36 49° W 00:43:36 49° W
Cosmos 2369 Rocket 4.3 00:52:42 10° NW 00:54:55 19° WNW 00:54:55 19° WNW
Cosmos 2082 Rocket 4.2 01:43:09 21° NE 01:43:09 21° NE 01:45:07 10° NE
CZ-4C R/B 3.8 01:53:07 30° N 01:53:07 30° N 01:56:18 10° NNE
USA 215 3.6 02:30:07 10° NE 02:35:14 58° NE 02:35:14 58° NE
CZ-2C R/B 4.3 02:31:55 10° N 02:34:55 28° NNW 02:34:55 28° NNW
Cosmos 2344 4.0 02:48:00 49° WNW 02:48:28 50° NW 02:56:35 10° NNE
CENTAUR R/B 2.8 03:11:26 59° NNW 03:11:26 59° NNW 03:17:03 10° NNE
Cosmos 1980 Rocket 3.2 03:07:10 10° N 03:12:26 40° ENE 03:12:47 39° ENE
Cosmos 2082 Rocket 4.0 03:24:59 22° NW 03:24:59 22° NW 03:28:25 10° N
CZ-2D R/B 4.3 03:23:36 10° NE 03:26:50 16° E 03:27:56 15° ESE
H-2A ROCKET BODY 4.1 03:12:58 10° WSW 03:33:12 14° E 03:33:36 10° E
NPP 4.1 03:24:44 10° NNE 03:29:02 58° N 03:29:02 58° N
Cosmos 1697 Rocket 3.5 03:28:17 10° NNW 03:32:00 42° NNW 03:32:00 42° NNW
ADEOS 4.1 03:31:35 10° NNE 03:36:06 55° ENE 03:36:06 55° ENE
Cosmos 1833 Rocket 4.4 03:38:11 22° NW 03:38:11 22° NW 03:41:49 10° N
Cosmos 1386 Rocket 4.4 03:38:10 84° N 03:38:10 84° N 03:44:11 10° N
Cosmos 1745 Rocket 4.3 03:42:40 56° WNW 03:42:40 56° WNW 03:48:21 10° N
Cosmos 1455 4.4 03:41:10 10° NNE 03:43:34 23° ENE 03:43:34 23° ENE
ARIANE 5 R/B 3.5 03:40:55 10° NNE 03:45:36 37° E 03:45:48 37° ESE
ATLAS 5 CENTAUR R/B 3.1 03:50:28 31° ESE 03:50:28 31° ESE 03:54:30 10° NE
Cosmos 1709 Rocket 4.0 03:53:03 63° SSE 03:53:58 74° E 04:00:15 10° N
Nadezhda 1 Rocket 3.9 03:50:10 10° N 03:56:06 70° W 03:56:06 70° W
Meteor 2-10 4.3 03:51:14 10° N 03:56:28 66° E 03:56:56 62° ESE
Okean O Rocket 4.1 04:03:39 10° ENE 04:06:13 15° E 04:08:20 11° SE
IRS-1C 4.3 04:01:12 10° N 04:06:11 58° WNW 04:06:11 58° WNW
Cosmos 1626 3.4 04:12:42 36° N 04:12:42 36° N 04:15:02 10° N
SL-16 R/B 3.1 04:05:58 10° N 04:11:25 46° ENE 04:16:49 10° SE
EO 1 Del DPAF 4.2 04:13:36 43° E 04:13:54 44° ENE 04:17:38 10° N
SL-08 R/B 4.4 04:16:04 32° NW 04:16:04 32° NW 04:19:06 10° NNW
Cosmos 1862 Rocket 3.6 04:13:23 10° N 04:17:26 72° NNW 04:17:26 72° NNW
Lacrosse 5 rocket 4.3 04:15:03 10° N 04:18:16 19° NE 04:21:31 10° E
Cosmos 1271 Rocket 3.8 04:19:25 10° NNW 04:21:46 36° NNW 04:21:46 36° NNW
Cosmos 2322 Rocket 2.4 04:19:39 10° NNW 04:25:15 68° ENE 04:30:27 12° SSE
Resurs 1-4 Rocket 2.2 04:21:42 10° NNE 04:27:01 71° ESE 04:28:38 45° S
Delta 7925 Rocket 4.4 04:25:08 47° SW 04:27:07 61° S 04:35:49 10° ESE
SEDSat Delta rocket 4.0 04:27:17 37° W 04:30:16 87° N 04:36:52 10° E
BREEZE-M DEB (TANK) 4.2 04:27:10 32° SW 04:33:58 75° SE 04:38:44 10° NE
OAO 3 Rocket 3.6 04:34:31 37° WNW 04:36:00 55° N 04:40:37 10° ENE
Cosmos 1869 Rocket 3.7 04:36:46 49° SSE 04:37:48 69° E 04:42:11 10° NNE
Lacrosse 5 1.7 04:35:55 10° NW 04:40:58 73° SW 04:45:58 10° SSE
OAO 1 4.4 04:40:26 50° WSW 04:41:56 84° SSE 04:47:27 10° ENE
Cosmos 2181 Rocket 4.0 04:43:40 10° NNW 04:49:42 58° W 04:52:30 32° SSW
CRYOSAT 2 4.2 04:46:01 10° N 04:50:53 77° W 04:52:43 38° SSW
Cosmos 1980 Rocket 3.7 04:51:58 10° NW 04:54:28 19° WNW 04:54:28 19° WNW
Cosmos 2360 Rocket 3.5 04:51:55 10° N 04:57:14 42° ENE 05:02:32 10° SE
Cosmos 923 Rocket 3.9 04:54:18 10° NNW 04:59:31 70° WSW 05:04:00 14° S
Cosmos 2219 3.4 04:58:21 23° S 05:01:56 70° ESE 05:07:39 10° NNE
CZ-4B R/B 3.7 04:56:52 10° NNE 05:02:16 58° ESE 05:07:12 13° S
IRS-1C Rocket 4.0 05:00:56 10° NNE 05:06:14 87° WNW 05:09:40 22° SSW
CZ-2D R/B 2.5 05:02:03 10° N 05:07:03 46° WNW 05:09:17 29° SW
Cosmos 1680 Rocket 3.4 05:04:30 10° NNW 05:09:42 75° WSW 05:14:53 10° S
SL-16 R/B 2.6 05:05:16 16° S 05:10:14 54° W 05:16:23 10° NNW
Cosmos 1703 Rocket 3.6 05:08:15 10° NNW 05:12:30 52° W 05:14:37 27° SSW
Cosmos 1733 Rocket 4.3 05:08:58 10° SSE 05:13:00 40° E 05:17:04 10° NNE
Thor Agena Rocket 4.2 05:07:50 10° SSE 05:13:00 59° ENE 05:18:12 10° N
USA 229 DEB 3.7 05:12:05 22° SSW 05:16:51 88° WNW 05:23:52 10° NNE
USA 229 3.7 05:12:09 22° SSW 05:16:58 89° NW 05:23:58 10° NNE
Cosmos 2074 Rocket 4.2 05:15:21 23° SW 05:19:04 49° W 05:25:06 10° N
CZ-2D R/B 3.6 05:15:16 10° N 05:19:19 53° WNW 05:21:17 27° SW
Cosmos 1455 4.4 05:17:52 10° WNW 05:18:34 12° WNW 05:18:34 12° WNW
CZ-4B DEB 4.3 05:15:47 10° NNE 05:21:18 78° ESE 05:26:48 10° S
Cosmos 2184 Rocket 4.3 05:17:43 21° SSW 05:21:50 50° W 05:27:59 10° N
GMS 1 Rocket 4.5 05:21:08 25° W 05:23:25 63° S 05:28:19 10° ESE
ARIANE 5 R/B 4.0 05:20:50 10° NNW 05:24:25 20° WNW 05:26:09 17° W
PAYLOAD B 4.2 05:18:58 10° N 05:24:29 83° WNW 05:29:35 12° SSW
GOES 2 Rocket 3.9 05:23:59 22° SSW 05:25:51 32° SSE 05:29:35 10° E
ISS -0.1 05:25:47 10° N 05:27:57 16° NE 05:30:06 10° ENE
UNKNOWN OBJECT B 4.0 05:26:12 10° NNW 05:29:21 25° WNW 05:30:37 21° WSW
OE (NEXTSAT) 4.5 05:28:32 26° SW 05:30:24 71° SE 05:34:00 10° ENE
Cosmos 304 Rocket 3.9 05:26:40 10° NNW 05:31:19 50° WSW 05:35:58 10° S
Cosmos 1892 2.9 05:29:50 10° S 05:33:42 72° E 05:37:35 10° N
GPS 2-05 Rocket1 3.8 05:32:05 14° WNW 05:34:44 41° N 05:38:04 10° ENE
ATLAS 5 CENTAUR R/B 3.3 05:32:01 15° W 05:34:45 24° NW 05:38:52 10° N
Cosmos 1898 Rocket 3.7 05:31:51 18° SW 05:35:37 54° WNW 05:40:41 10° N
COSMOS 2428 4.1 05:30:44 10° N 05:36:07 42° ENE 05:41:28 10° SE
CZ-4B R/B 2.9 05:36:45 10° N 05:40:46 67° WNW 05:44:58 10° SSW
Okean O Rocket 2.4 05:38:37 10° N 05:42:39 35° WNW 05:45:48 15° SW
Cosmos 1937 Rocket 3.6 05:41:52 12° SSW 05:46:47 62° WNW 05:52:03 10° N
Meteor 2-3 Rocket 4.1 05:42:20 11° SSW 05:47:42 48° W 05:53:17 10° N
Okean 1-7 3.8 05:44:06 10° NNW 05:48:01 32° W 05:51:53 10° SSW
ADEOS II 3.1 05:46:26 10° NNE 05:51:30 46° E 05:56:31 10° S
GP-B 3.3 05:49:02 10° N 05:53:28 74° E 05:57:53 10° S
CZ-2C R/B 4.3 05:50:39 10° SSW 05:54:40 34° W 05:58:46 10° NNW
SL-16 R/B 3.5 05:51:20 10° WNW 05:55:04 18° W 05:58:47 10° SW
Lacrosse 5 rocket 1.7 05:53:23 10° NW 05:57:45 49° WSW 06:02:11 10° SSE
AVUM R/B 3.0 05:55:50 10° S 05:57:55 47° ESE 05:59:57 10° NNE
Cosmos 1356 Rocket 4.1 05:55:39 10° S 05:59:43 58° E 06:03:44 10° NNE
Cosmos 1674 Rocket 3.8 05:56:04 10° N 06:00:23 75° E 06:04:42 10° S
Iridium 4 Rocket 3.5 06:01:21 10° N 06:05:36 64° E 06:09:41 10° S
Okean-O 2.7 06:01:18 10° N 06:05:41 62° WNW 06:10:03 10° SSW
Resurs 1-4 Rocket 4.1 06:04:29 10° NW 06:06:11 11° WNW 06:07:53 10° W
Cosmos 2322 Rocket 3.9 06:06:53 10° W 06:08:35 11° W 06:10:17 10° WSW
Meteor 1-10 Rocket 4.4 06:04:00 10° N 06:09:44 90° ESE 06:15:34 10° S
CZ-3 Stage 3 1.7 06:06:04 10° W 06:10:21 51° SSW 06:12:53 10° ESE
Cosmos 1782 2.9 06:08:01 10° N 06:12:02 81° E 06:16:00 10° S
Meteor 2-13 Rocket 4.5 06:09:45 10° S 06:15:48 84° W 06:21:52 10° N
SEDSat Delta rocket 4.0 06:10:21 10° W 06:17:05 74° SSW 06:23:13 10° ESE
